DUNNNINGN Weather Reports


time (UTC)temp
F
wind
direction
speed
knots
gust
knots
rain 1hr
in
rain 24hr
in
rain mn
in
humidity
%
barometer
mb
20260506183209 48 184 4.3 0.0 0.00 0.00 0.14 91 1009.2
20260506180216 48 240 3.5 0.0 0.00 0.00 0.13 91 1008.9
20260506173210 48 205 5.2 0.0 0.00 0.00 0.12 91 1008.5
20260506170215 48 262 1.7 0.0 0.00 0.00 0.11 91 1008.3
20260506163210 49 252 5.2 0.0 0.00 0.00 0.09 89 1008.4
20260506160210 49 231 7.0 0.0 0.00 0.00 0.09 87 1008.3
20260506153210 51 234 7.8 0.0 0.00 0.00 0.08 88 1008.1
20260506150210 52 269 6.1 0.0 0.00 0.00 0.07 89 1007.7
20260506143210 52 230 4.3 0.0 0.00 0.00 0.06 91 1007.3
20260506140210 52 298 5.2 0.0 0.00 0.00 0.06 91 1006.9
20260506133211 52 246 8.7 0.0 0.00 0.00 0.06 91 1006.9
20260506130211 52 263 6.1 0.0 0.00 0.00 0.04 91 1006.5
20260506123210 52 290 7.0 0.0 0.00 0.00 0.04 90 1006.4
20260506120210 54 236 8.7 0.0 0.00 0.00 0.01 85 1006.3
20260506113217 55 265 4.3 0.0 0.00 0.00 0.01 78 1006.3
20260506110210 58 13 3.5 0.0 0.00 0.00 0.01 74 1006.1
20260506100213 59 224 2.6 0.0 0.00 0.00 0.01 69 1006.3
20260506093211 59 207 3.5 0.0 0.00 0.00 0.01 70 1006.5
20260506090211 58 185 3.5 0.0 0.00 0.00 0.01 72 1006.5
20260506083211 58 147 4.3 0.0 0.00 0.00 0.01 73 1006.4
20260506080212 57 197 7.0 0.0 0.00 0.00 0.01 77 1006.5
20260506073211 54 157 7.0 0.0 0.00 0.00 0.01 83 1006.5
20260506070212 52 159 3.5 0.0 0.00 0.00 0.01 88 1006.4
20260506060210 45 180 3.5 0.0 0.00 0.00 0.01 94 1006.7
20260506050211 43 165 4.3 0.0 0.00 0.00 0.00 93 1006.9
20260506043211 43 171 3.5 0.0 0.00 0.00 0.00 93 1007.2
20260506040211 43 165 3.5 0.0 0.00 0.00 0.00 92 1007.0
20260506033211 44 147 4.3 0.0 0.00 0.00 0.00 92 1007.0
20260506030212 44 157 1.7 0.0 0.00 0.00 0.00 92 1007.5
20260506023211 44 175 3.5 0.0 0.00 0.00 0.00 92 1007.9
20260506020212 45 175 1.7 0.0 0.00 0.00 0.00 92 1007.9
20260506013211 45 121 5.2 0.0 0.00 0.00 0.00 92 1008.0
20260506010212 46 168 1.7 0.0 0.00 0.00 0.00 91 1008.1
20260506003209 47 157 2.6 0.0 0.00 0.00 0.00 91 1008.0
20260506000211 47 144 0.9 0.0 0.00 0.00 0.00 91 1008.5
20260505233209 48 160 6.1 0.0 0.00 0.00 0.00 91 1008.8
20260505230209 48 142 5.2 0.0 0.00 0.00 0.00 91 1008.7
20260505223210 48 175 3.5 0.0 0.00 0.00 0.00 91 1008.9
20260505220209 49 161 4.3 0.0 0.00 0.00 0.00 90 1008.8
20260505213211 50 167 3.5 0.0 0.00 0.00 0.16 89 1008.7
20260505210215 51 179 0.9 0.0 0.00 0.00 0.16 89 1009.0
20260505203209 51 190 0.9 0.0 0.00 0.00 0.16 88 1008.5
20260505200210 52 192 5.2 0.0 0.00 0.00 0.16 88 1008.4
20260505193209 52 192 5.2 0.0 0.00 0.00 0.16 88 1007.8
20260505190215 53 227 7.0 0.0 0.00 0.00 0.16 88 1007.9